Overview Statistics Trail Chart Weather Telemetry Raw packets
 

This is the latest recevied weather packets stored in our database for station/object XE3JAC-13. If no packets are shown the sender has not sent any weather packets the latest 10 day(s).

<< 16 17 18 19 20 21 22 >>
Time Temp. Humidity Pressure Rain* Wind** Luminosity Snow
1777065732 26.11° C 40% 1009 hPa 0 mm - - -
1777064832 26.11° C 40% 1009 hPa 0 mm - - -
1777063931 26.11° C 40% 1009 hPa 0 mm - - -
1777063031 26.11° C 40% 1009 hPa 0 mm - - -
1777062131 26.11° C 40% 1009 hPa 0 mm - - -
1777061230 26.11° C 36% 1009 hPa 0 mm - - -
1777060330 26.67° C 35% 1009 hPa 0 mm - - -
1777059429 26.67° C 36% 1009 hPa 0 mm - - -
1777058529 26.67° C 37% 1010 hPa 0 mm - - -
1777057629 26.67° C 40% 1010 hPa 0 mm - - -
1777056728 25.56° C 43% 1010 hPa 0 mm - - -
1777055828 24.44° C 50% 1011 hPa 0 mm - - -
1777054928 24.44° C 52% 1012 hPa 0 mm - - -
1777054027 24.44° C 53% 1012 hPa 0 mm - - -
1777053127 23.89° C 54% 1012 hPa 0 mm - - -
1777052226 23.33° C 55% 1012 hPa 0 mm - - -
1777051326 23.33° C 56% 1013 hPa 0 mm - - -
1777050426 22.78° C 57% 1013 hPa 0 mm - - -
1777049525 22.78° C 57% 1013 hPa 0 mm - - -
1777048625 22.22° C 58% 1013 hPa 0 mm - - -
1777047724 21.67° C 58% 1014 hPa 0 mm - - -
1777046824 21.11° C 58% 1014 hPa 0 mm - - -
1777045923 20.56° C 59% 1014 hPa 0 mm - - -
1777045023 20.56° C 59% 1014 hPa 0 mm - - -
1777044123 20° C 58% 1014 hPa 0 mm - - -

* Rain latest hour (hover to see other rain measurements)
** Current wind speed in m/s (hover to see current wind gust speed)